Location: Chippewa Lake
(41.0698°N, 81.9010°W)
Time: 00:13:46
(UTC+00:00)

N. Korean satellite - Visible Passes

Search period start: 27 January 2022 00:00
Search period end: 06 February 2022 00:00
Orbit: 447 x 490 km, 97.3° (Epoch: 26 January)

Date Brightness Start Highest point End Pass type
(mag) Time Alt. Az. Time Alt. Az. Time Alt. Az.
27 Jan 8.9 10:02:23 10° NE 10:09:58 - SSE 10:04:56 24° E visible
27 Jan 7.9 11:35:41 10° NNW 11:38:24 20° WNW 11:39:00 19° W visible
28 Jan 10.0 09:34:59 10° ENE 09:40:23 - SE 09:35:52 11° E visible
28 Jan 6.8 11:05:52 10° N 11:09:21 45° WNW 11:09:57 40° WSW visible
29 Jan 6.7 10:36:31 10° NNE 10:40:10 72° ESE 10:40:55 52° SSE visible
30 Jan 8.5 10:07:38 10° NE 10:10:49 28° E 10:11:54 24° SE visible
30 Jan 8.1 11:41:16 10° NNW 11:43:44 17° WNW 11:45:59 11° WSW visible
31 Jan 9.8 09:39:41 10° ENE 09:41:22 13° E 09:42:59 10° ESE visible
31 Jan 7.0 11:11:16 10° N 11:14:40 38° WNW 11:17:05 16° SW visible
01 Feb 6.5 10:41:48 10° NNE 10:45:27 85° E 10:49:02 10° S visible
02 Feb 8.3 10:12:46 10° NNE 10:16:06 33° E 10:19:22 10° SSE visible
02 Feb 8.2 11:46:46 10° NNW 11:48:56 15° WNW 11:51:03 10° WSW visible
03 Feb 9.6 09:44:30 10° ENE 09:46:35 15° E 09:48:40 10° SE visible
03 Feb 7.2 11:16:33 10° N 11:19:49 32° WNW 11:23:03 10° SW visible
04 Feb 6.4 10:46:57 10° N 10:50:35 82° WNW 10:54:09 10° SSW visible
05 Feb 7.9 10:17:48 10° NNE 10:21:12 38° E 10:24:33 10° SSE visible
05 Feb 8.4 11:52:12 10° NW 11:53:57 13° WNW 11:55:43 10° W visible
